| time (UTC) | temp F | wind direction | speed MPH | gust MPH | rain 1hr in | rain 24hr in | rain mn in | humidity % | barometer mb |
| 20260509190007 | 59 | 196 | 6.0 | 20.0 | 0.01 | 0.01 | 0.01 | 88 | 1011.2 |
| 20260509184514 | 59 | 206 | 7.0 | 15.0 | 0.00 | 0.00 | 0.00 | 87 | 1011.8 |
| 20260509183016 | 60 | 153 | 11.0 | 17.0 | 0.00 | 0.00 | 0.00 | 83 | 1012.0 |
| 20260509181519 | 61 | 161 | 7.0 | 13.0 | 0.00 | 0.00 | 0.00 | 79 | 1012.0 |
| 20260509180024 | 62 | 191 | 5.0 | 15.0 | 0.00 | 0.00 | 0.00 | 78 | 1011.9 |
| 20260509174506 | 62 | 125 | 4.0 | 17.0 | 0.00 | 0.00 | 0.00 | 78 | 1012.0 |
| 20260509173014 | 62 | 185 | 4.0 | 13.0 | 0.00 | 0.00 | 0.00 | 74 | 1012.2 |
| 20260509171519 | 62 | 88 | 9.0 | 22.0 | 0.00 | 0.00 | 0.00 | 73 | 1012.3 |
| 20260509170023 | 63 | 198 | 7.0 | 16.0 | 0.00 | 0.00 | 0.00 | 72 | 1012.2 |
| 20260509164526 | 64 | 183 | 11.0 | 20.0 | 0.00 | 0.00 | 0.00 | 71 | 1012.2 |
| 20260509163007 | 64 | 171 | 11.0 | 21.0 | 0.00 | 0.00 | 0.00 | 72 | 1012.2 |
| 20260509161515 | 63 | 169 | 4.0 | 12.0 | 0.00 | 0.00 | 0.00 | 73 | 1012.8 |
| 20260509160020 | 62 | 153 | 5.0 | 12.0 | 0.00 | 0.00 | 0.00 | 75 | 1013.2 |
| 20260509154524 | 62 | 221 | 4.0 | 11.0 | 0.00 | 0.00 | 0.00 | 75 | 1013.5 |
| 20260509153039 | 62 | 210 | 4.0 | 13.0 | 0.00 | 0.00 | 0.00 | 76 | 1013.8 |
| 20260509151510 | 62 | 198 | 5.0 | 11.0 | 0.00 | 0.00 | 0.00 | 76 | 1013.9 |
| 20260509150026 | 61 | 188 | 6.0 | 12.0 | 0.00 | 0.00 | 0.00 | 77 | 1014.0 |
| 20260509144528 | 61 | 225 | 5.0 | 11.0 | 0.00 | 0.00 | 0.00 | 77 | 1013.9 |
| 20260509143023 | 60 | 219 | 6.0 | 14.0 | 0.00 | 0.00 | 0.00 | 78 | 1013.8 |
| 20260509141530 | 60 | 219 | 7.0 | 13.0 | 0.00 | 0.00 | 0.00 | 78 | 1013.7 |
| 20260509140012 | 60 | 207 | 5.0 | 12.0 | 0.00 | 0.00 | 0.00 | 80 | 1013.7 |
| 20260509134503 | 59 | 220 | 6.0 | 14.0 | 0.00 | 0.00 | 0.00 | 80 | 1013.7 |
| 20260509133010 | 59 | 189 | 9.0 | 16.0 | 0.00 | 0.00 | 0.00 | 80 | 1013.8 |
| 20260509131511 | 59 | 185 | 6.0 | 15.0 | 0.00 | 0.00 | 0.00 | 81 | 1013.8 |
| 20260509130012 | 58 | 238 | 6.0 | 17.0 | 0.00 | 0.00 | 0.00 | 82 | 1013.9 |
| 20260509124515 | 58 | 216 | 7.0 | 17.0 | 0.00 | 0.00 | 0.00 | 81 | 1013.8 |
| 20260509123004 | 58 | 215 | 7.0 | 13.0 | 0.00 | 0.00 | 0.00 | 82 | 1013.8 |
| 20260509121519 | 58 | 206 | 7.0 | 15.0 | 0.00 | 0.00 | 0.00 | 82 | 1013.9 |
| 20260509120007 | 58 | 168 | 8.0 | 15.0 | 0.00 | 0.00 | 0.00 | 83 | 1013.9 |
| 20260509114525 | 57 | 227 | 7.0 | 14.0 | 0.00 | 0.00 | 0.00 | 83 | 1013.8 |
| 20260509113023 | 57 | 188 | 7.0 | 15.0 | 0.00 | 0.00 | 0.00 | 84 | 1013.8 |
| 20260509111522 | 56 | 207 | 7.0 | 16.0 | 0.00 | 0.00 | 0.00 | 84 | 1014.0 |
| 20260509110010 | 56 | 189 | 8.0 | 14.0 | 0.00 | 0.00 | 0.00 | 84 | 1013.7 |
| 20260509104518 | 56 | 214 | 8.0 | 20.0 | 0.00 | 0.00 | 0.00 | 84 | 1013.8 |
| 20260509103017 | 56 | 213 | 10.0 | 18.0 | 0.00 | 0.00 | 0.00 | 84 | 1013.9 |
| 20260509101531 | 56 | 205 | 9.0 | 18.0 | 0.00 | 0.00 | 0.00 | 84 | 1013.7 |
| 20260509100028 | 56 | 203 | 8.0 | 19.0 | 0.00 | 0.00 | 0.00 | 84 | 1013.4 |
| 20260509094517 | 56 | 202 | 7.0 | 16.0 | 0.00 | 0.00 | 0.00 | 83 | 1013.6 |
| 20260509093027 | 55 | 214 | 8.0 | 18.0 | 0.00 | 0.00 | 0.00 | 83 | 1013.5 |
| 20260509091530 | 56 | 223 | 8.0 | 20.0 | 0.00 | 0.00 | 0.00 | 82 | 1013.6 |
| 20260509090025 | 56 | 179 | 7.0 | 18.0 | 0.00 | 0.00 | 0.00 | 81 | 1013.5 |
| 20260509084525 | 56 | 181 | 10.0 | 23.0 | 0.00 | 0.00 | 0.00 | 80 | 1013.5 |
| 20260509083012 | 56 | 230 | 9.0 | 17.0 | 0.00 | 0.00 | 0.00 | 79 | 1013.6 |
| 20260509081524 | 56 | 207 | 9.0 | 20.0 | 0.00 | 0.00 | 0.00 | 79 | 1013.7 |
| 20260509080020 | 56 | 217 | 9.0 | 15.0 | 0.00 | 0.00 | 0.00 | 79 | 1013.7 |
| 20260509074539 | 56 | 206 | 8.0 | 18.0 | 0.00 | 0.00 | 0.00 | 79 | 1013.8 |
| 20260509073025 | 55 | 198 | 9.0 | 18.0 | 0.00 | 0.00 | 0.00 | 79 | 1013.8 |
| 20260509071512 | 55 | 169 | 9.0 | 17.0 | 0.00 | 0.00 | 0.00 | 81 | 1013.9 |
| 20260509070016 | 55 | 209 | 5.0 | 14.0 | 0.00 | 0.00 | 0.00 | 81 | 1013.8 |
| 20260509064520 | 55 | 201 | 7.0 | 16.0 | 0.00 | 0.00 | 0.00 | 81 | 1013.8 |
| 20260509063003 | 55 | 228 | 8.0 | 14.0 | 0.00 | 0.00 | 0.00 | 81 | 1013.9 |
| 20260509061512 | 55 | 234 | 9.0 | 15.0 | 0.00 | 0.00 | 0.00 | 80 | 1014.0 |
| 20260509060018 | 55 | 210 | 8.0 | 16.0 | 0.00 | 0.00 | 0.00 | 79 | 1014.1 |
| 20260509054518 | 55 | 202 | 9.0 | 17.0 | 0.00 | 0.00 | 0.00 | 77 | 1014.0 |
| 20260509053024 | 55 | 206 | 9.0 | 21.0 | 0.00 | 0.00 | 0.00 | 76 | 1014.1 |
| 20260509051509 | 55 | 231 | 10.0 | 16.0 | 0.00 | 0.00 | 0.00 | 76 | 1014.3 |
| 20260509050012 | 55 | 186 | 10.0 | 18.0 | 0.00 | 0.00 | 0.00 | 76 | 1014.3 |
| 20260509044516 | 55 | 213 | 11.0 | 19.0 | 0.00 | 0.00 | 0.00 | 76 | 1014.4 |
| 20260509043022 | 55 | 227 | 10.0 | 18.0 | 0.00 | 0.00 | 0.00 | 76 | 1014.4 |
| 20260509041532 | 55 | 219 | 9.0 | 18.0 | 0.00 | 0.00 | 0.00 | 76 | 1014.4 |
| 20260509040029 | 55 | 216 | 10.0 | 21.0 | 0.00 | 0.00 | 0.00 | 76 | 1014.6 |
| 20260509034513 | 55 | 233 | 11.0 | 19.0 | 0.00 | 0.00 | 0.00 | 76 | 1014.5 |
| 20260509033018 | 55 | 240 | 13.0 | 19.0 | 0.00 | 0.00 | 0.00 | 75 | 1014.4 |
| 20260509031533 | 55 | 217 | 11.0 | 19.0 | 0.00 | 0.00 | 0.00 | 75 | 1014.3 |
| 20260509030025 | 55 | 199 | 10.0 | 20.0 | 0.00 | 0.00 | 0.00 | 75 | 1014.3 |
| 20260509024527 | 55 | 217 | 11.0 | 18.0 | 0.00 | 0.00 | 0.00 | 74 | 1014.3 |
| 20260509023017 | 55 | 173 | 12.0 | 18.0 | 0.00 | 0.00 | 0.00 | 75 | 1014.3 |
| 20260509021520 | 55 | 199 | 11.0 | 19.0 | 0.00 | 0.00 | 0.00 | 76 | 1014.5 |
| 20260509020038 | 55 | 206 | 11.0 | 17.0 | 0.00 | 0.00 | 0.00 | 76 | 1014.5 |
| 20260509014528 | 56 | 227 | 10.0 | 22.0 | 0.00 | 0.00 | 0.00 | 76 | 1014.4 |
| 20260509013037 | 56 | 221 | 11.0 | 22.0 | 0.00 | 0.00 | 0.00 | 76 | 1014.3 |
| 20260509011516 | 56 | 234 | 10.0 | 20.0 | 0.00 | 0.00 | 0.00 | 75 | 1014.0 |
| 20260509010022 | 56 | 211 | 10.0 | 19.0 | 0.00 | 0.00 | 0.00 | 74 | 1013.8 |
| 20260509004530 | 56 | 221 | 9.0 | 19.0 | 0.00 | 0.00 | 0.00 | 74 | 1013.5 |
| 20260509003028 | 56 | 248 | 10.0 | 18.0 | 0.00 | 0.00 | 0.00 | 74 | 1013.3 |
| 20260509001514 | 56 | 197 | 13.0 | 20.0 | 0.00 | 0.00 | 0.00 | 73 | 1013.4 |
| 20260509000017 | 56 | 220 | 12.0 | 22.0 | 0.00 | 0.00 | 0.00 | 73 | 1013.2 |
| 20260508234503 | 56 | 221 | 11.0 | 22.0 | 0.00 | 0.00 | 0.00 | 72 | 1013.1 |
| 20260508233004 | 56 | 212 | 11.0 | 20.0 | 0.00 | 0.00 | 0.00 | 71 | 1012.9 |
| 20260508231507 | 57 | 196 | 8.0 | 19.0 | 0.00 | 0.00 | 0.00 | 68 | 1012.9 |
| 20260508230011 | 59 | 202 | 8.0 | 20.0 | 0.00 | 0.00 | 0.00 | 64 | 1012.9 |
| 20260508224523 | 60 | 207 | 9.0 | 20.0 | 0.00 | 0.00 | 0.00 | 61 | 1012.9 |
| 20260508223027 | 61 | 220 | 7.0 | 18.0 | 0.00 | 0.00 | 0.00 | 57 | 1012.9 |
| 20260508221507 | 61 | 182 | 9.0 | 22.0 | 0.00 | 0.00 | 0.00 | 55 | 1012.9 |
| 20260508220009 | 61 | 225 | 10.0 | 23.0 | 0.00 | 0.00 | 0.00 | 53 | 1012.9 |
| 20260508214525 | 61 | 201 | 11.0 | 24.0 | 0.00 | 0.00 | 0.00 | 52 | 1013.0 |
| 20260508213019 | 61 | 207 | 13.0 | 24.0 | 0.00 | 0.00 | 0.00 | 51 | 1012.9 |
| 20260508211534 | 61 | 198 | 13.0 | 22.0 | 0.00 | 0.00 | 0.00 | 51 | 1013.0 |
| 20260508210008 | 61 | 211 | 14.0 | 22.0 | 0.00 | 0.00 | 0.00 | 52 | 1013.0 |
| 20260508204512 | 62 | 223 | 14.0 | 22.0 | 0.00 | 0.00 | 0.00 | 53 | 1013.0 |
| 20260508203017 | 62 | 220 | 10.0 | 20.0 | 0.00 | 0.00 | 0.00 | 51 | 1013.1 |
| 20260508201520 | 63 | 198 | 9.0 | 21.0 | 0.00 | 0.00 | 0.00 | 52 | 1013.3 |
| 20260508200026 | 63 | 236 | 9.0 | 22.0 | 0.00 | 0.00 | 0.00 | 49 | 1013.2 |
| 20260508194524 | 63 | 217 | 11.0 | 21.0 | 0.00 | 0.00 | 0.00 | 47 | 1013.4 |
| 20260508193013 | 63 | 190 | 11.0 | 22.0 | 0.00 | 0.00 | 0.00 | 50 | 1013.4 |
| 20260508191526 | 63 | 210 | 8.0 | 19.0 | 0.00 | 0.00 | 0.00 | 49 | 1013.4 |
| 20260508190023 | 63 | 187 | 12.0 | 26.0 | 0.00 | 0.00 | 0.00 | 50 | 1013.5 |